Location: College Park
(38.9810°N, 76.9370°W)
Time: 12:41:26
(UTC-04:00)

ISS - Pass Details

Date: 13 February 2018
Orbit: 402 x 406 km, 51.6° (Epoch: 20 June)

Event Time Altitude Azimuth Distance (km) Brightness Sun altitude
Rises 19:25:49 0° 286° (WNW) 2,314 1.4 -20.5°
Reaches altitude 10° 19:29:18 10° 247° (WSW) 1,451 -0.1 -21.2°
Maximum altitude 19:30:07 11° 232° (SW) 1,407 -0.4 -21.4°
Drops below altitude 10° 19:30:56 10° 218° (SW) 1,449 -0.6 -21.5°
Enters shadow 19:33:30 - 185° (S) 2,012 -0.2 -22.0°
